Location: New Town
(33.2710°N, 90.7534°W)
Time: 02:06:29
(UTC+00:00)

Vanguard 3 - All Passes

Search period start: 12 May 2021 00:00
Search period end: 22 May 2021 00:00
Orbit: 508 x 3262 km, 33.3° (Epoch: 11 May)

Date Brightness Start Highest point End Pass type
(mag) Time Alt. Az. Time Alt. Az. Time Alt. Az.
12 May - 00:09:21 10° WSW 00:29:29 76° SSE 00:44:21 10° E daylight
12 May - 02:27:09 10° W 02:45:53 89° N 02:57:04 10° E visible
12 May - 04:45:54 10° WNW 05:00:28 71° SSW 05:08:25 10° ESE visible
12 May - 07:04:28 10° W 07:11:54 23° SW 07:16:55 10° S visible
12 May - 20:41:59 10° SSW 20:56:45 31° SE 21:12:16 10° E daylight
12 May - 22:52:58 10° SW 23:12:19 64° SSE 23:29:01 10° ENE daylight
13 May - 01:09:03 10° WSW 01:29:08 88° S 01:42:41 10° E visible
13 May - 03:27:42 10° W 03:45:03 85° SSW 03:54:54 10° ESE visible
13 May - 05:46:15 10° WNW 05:58:12 44° SW 06:05:07 10° SE visible
13 May - 19:30:42 10° SSE 19:40:55 18° SE 19:52:11 10° E daylight
13 May - 21:37:51 10° SSW 21:55:20 49° SE 22:12:50 10° ENE daylight
13 May - 23:51:42 10° WSW 00:11:54 80° SSE 00:27:44 10° E daylight
14 May - 02:09:24 10° W 02:28:46 90° N 02:40:50 10° E visible
14 May - 04:28:08 10° WNW 04:43:37 67° SSW 04:52:16 10° SE visible
14 May - 06:47:22 10° W 06:55:04 22° SW 07:00:23 10° S visible
14 May - 20:24:09 10° SSW 20:38:55 35° SE 20:55:23 10° E daylight
14 May - 22:35:25 10° SW 22:54:31 68° SSE 23:12:10 10° ENE daylight
15 May - 00:51:25 10° W 01:11:46 89° S 01:26:14 10° E visible
15 May - 03:09:53 10° W 03:28:03 82° SSW 03:38:42 10° ESE visible
15 May - 05:28:39 10° WNW 05:41:18 41° SW 05:48:49 10° SSE visible
15 May - 19:12:25 10° S 19:23:13 21° SE 19:35:44 10° E daylight
15 May - 21:20:20 10° SW 21:37:28 54° SSE 21:55:48 10° ENE daylight
15 May - 23:34:13 10° WSW 23:54:16 83° SSE 00:11:03 10° E daylight
16 May - 01:51:41 10° W 02:11:33 89° S 02:24:31 10° E visible
16 May - 04:10:19 10° WNW 04:26:38 63° SSW 04:36:02 10° SE visible
16 May - 06:30:16 10° W 06:38:07 20° SW 06:43:43 10° S visible
16 May - 20:06:36 10° SSW 20:21:04 38° SE 20:38:16 10° E daylight
16 May - 22:18:03 10° WSW 22:36:44 72° SSE 22:55:12 10° ENE daylight
17 May - 00:33:53 10° W 00:54:18 90° NNW 01:09:41 10° E daylight
17 May - 02:52:04 10° W 03:10:56 79° SSW 03:22:25 10° ESE visible
17 May - 05:11:01 10° W 05:24:16 38° SW 05:32:23 10° SSE visible
17 May - 18:54:33 10° S 19:05:31 24° SE 19:18:55 10° E daylight
17 May - 21:03:03 10° SW 21:19:36 58° SSE 21:38:36 10° ENE daylight
17 May - 23:16:52 10° WSW 23:36:36 85° SSE 23:54:15 10° E daylight
18 May - 01:34:01 10° W 01:54:14 88° S 02:08:06 10° E visible
18 May - 03:52:30 10° WNW 04:09:31 59° SSW 04:19:40 10° SE visible
18 May - 06:13:11 10° W 06:21:03 18° SW 06:26:51 10° S visible
18 May - 17:47:47 10° SE 17:50:41 11° SE 17:53:47 10° ESE daylight
18 May - 19:49:17 10° SSW 20:03:15 42° SE 20:20:58 10° ENE daylight
18 May - 22:00:51 10° WSW 22:18:56 76° SSE 22:38:08 10° ENE daylight
19 May - 00:16:28 10° W 00:36:47 89° N 00:53:04 10° E daylight
19 May - 02:34:18 10° WNW 02:53:40 76° SSW 03:06:02 10° ESE visible
19 May - 04:53:22 10° W 05:07:06 36° SW 05:15:51 10° SSE visible
19 May - 18:37:02 10° S 18:47:50 26° SE 19:01:48 10° E daylight
19 May - 20:45:56 10° SW 21:01:47 62° SSE 21:21:16 10° ENE daylight
19 May - 22:59:40 10° WSW 23:18:56 87° S 23:37:21 10° E daylight
20 May - 01:16:27 10° W 01:36:48 86° SSW 01:51:36 10° ESE visible
20 May - 03:34:42 10° WNW 03:52:14 55° SSW 04:03:12 10° SE visible
20 May - 05:56:11 10° W 06:03:52 17° SW 06:09:47 10° SSW visible
20 May - 17:28:16 10° SSE 17:33:13 13° SE 17:38:52 10° ESE daylight
20 May - 19:32:10 10° SSW 19:45:30 46° SE 20:03:31 10° ENE daylight
20 May - 21:43:50 10° WSW 22:01:11 79° SSE 22:20:55 10° E daylight
20 May - 23:59:09 10° W 00:19:12 90° N 00:36:21 10° E daylight
21 May - 02:16:34 10° WNW 02:36:15 72° SSW 02:49:32 10° ESE visible
21 May - 04:35:45 10° W 04:49:48 33° SW 04:59:09 10° SSE visible
21 May - 18:19:47 10° S 18:30:13 29° SE 18:44:30 10° E daylight
21 May - 20:29:01 10° SW 20:44:02 66° SSE 21:03:48 10° ENE daylight
21 May - 22:42:36 10° W 23:01:15 89° S 23:20:21 10° E daylight
